Location: Coors Field
(39.7564°N, 104.9943°W)
Time: 01:01:45
(UTC-06:00)

ISS - Visible Passes

Search period start: 25 October 2014 00:00
Search period end: 03 November 2014 23:00
Orbit: 412 x 416 km, 51.6° (Epoch: 25 October)

Date Brightness Start Highest point End Pass type
(mag) Time Alt. Az. Time Alt. Az. Time Alt. Az.
25 Oct -1.8 19:59:56 10° WNW 20:02:58 33° SW 20:03:08 33° SW visible
26 Oct -2.9 19:10:32 10° WNW 19:13:50 63° SW 19:16:35 14° SE visible
27 Oct -0.2 19:59:31 10° WSW 20:00:50 12° SW 20:02:10 10° SSW visible
28 Oct -0.7 19:09:07 10° W 19:11:44 21° SW 19:14:20 10° S visible
